Location: Benque
(43.2594°N, 0.9178°E)
Time: 17:25:28
(UTC+00:00)

ATLAS CENTAUR R/B - Pass Details

Date: 24 January 2020
Orbit: 461 x 687 km, 64.6° (Epoch: 12 February)

Event Time Altitude Azimuth Distance (km) Brightness Sun altitude
Rises 17:24:09 0° 337° (NNW) 2,786 4.9 -5.4°
Reaches altitude 10° 17:27:29 10° 4° (N) 1,827 3.7 -5.9°
Maximum altitude 17:29:35 14° 35° (NE) 1,571 3.2 -6.3°
Drops below altitude 10° 17:31:37 10° 67° (ENE) 1,755 3.2 -6.6°
Enters shadow 17:32:09 - 73° (ENE) 1,868 3.3 -6.7°
